Tracking 30696 objects as of 15-Jun-2025
HD Live streaming from Space Station
objects crossing your sky now

STARLINK-31132

Track STARLINK-31132 now!
10-day predictions
STARLINK-31132 is classified as:


NORAD ID: 58777
Int'l Code: 2024-011N
Perigee: 481.4 km
Apogee: 483.6 km
Inclination: 53.2 °
Period: 94.1 minutes
Semi major axis: 6853 km
RCS: Unknown
Launch date: January 14, 2024
Source: United States (US)
Launch site: AIR FORCE WESTERN TEST RANGE (AFWTR)
Your satellite tracking list
Your tracking list is empty




NASA's NSSDC Master Catalog

Two Line Element Set (TLE):
1 58777U 24011N   25166.18992590  .00002910  00000-0  11046-3 0  9992
2 58777  53.1595  86.0433 0001605  82.5331 277.5852 15.30162376 80583
Source of the keplerian elements: AFSPC